{"data":{"norad_id":59082,"epoch":"2026-05-24T15:59:48.636960Z","epoch_age_seconds":113941,"freshness":"FRESH","line1":"1 59082U 24041J   26144.66653515  .00000832  00000+0  39757-4 0  9996","line2":"2 59082  43.0030 241.4212 0002053 251.4495 108.6134 15.27576086125976","mean_motion":15.27576086,"eccentricity":0.0002053,"inclination_deg":43.003,"raan_deg":241.4212,"arg_perigee_deg":251.4495,"mean_anomaly_deg":108.6134,"bstar":3.9757e-5,"rev_number":12597,"period_min":94.266990246665,"perigee_km":481.65221207711,"apogee_km":484.46941990035,"semimajor_km":6861.1978159887,"source":"CELESTRAK","updated_at":"2026-05-25T13:38:18.829343Z"}}